Weather History for KLFK - March, 2012

Change the Weather History Date:

Wednesday, March 21, 2012

  Actual Average Record
Temperature  
Mean Temperature 61 °F 61 °F  
Max Temperature 70 °F 73 °F 89 °F (1910)
Min Temperature 52 °F 49 °F 28 °F (1996)
Degree Days  
Heating Degree Days 4 6  
Month to date heating degree days 61 162  
Since 1 July heating degree days 1408 1796  
Cooling Degree Days 0 1  
Month to date cooling degree days 94 21  
Year to date cooling degree days 149 40  
Growing Degree Days 10 (Base 50)    
Moisture  
Dew Point 49 °F    
Average Humidity 63    
Maximum Humidity 93    
Minimum Humidity 32    
Precipitation  
Precipitation 0.02 in 0.12 in 2.38 in (1955)
Month to date precipitation 8.32 2.62  
Year to date precipitation 17.04 10.67  
Snow  
Snow 0.00 in - - ()
Month to date snowfall 0.0  
Since 1 July snowfall 0.0  
Snow Depth 0.00 in    
Sea Level Pressure  
Sea Level Pressure 29.86 in    
Wind  
Wind Speed 6 mph (SSW)    
Max Wind Speed 22 mph    
Max Gust Speed 32 mph    
Visibility 9 miles    
Events Rain    
T = Trace of Precipitation, MM = Missing Value Source: NWS Daily Summary

Daily Weather History Graph

Daily Weather History Graph

Search for Another Location

Airport or City:

Trip Planner

Search our weather history database for the weather conditions in past years. The results will help you decide how hot, cold, wet, or windy it might be!

Date:

Astronomy

Mar. 21, 2012 Rise Set
Actual Time 7:20 AM CDT 7:31 PM CDT
Civil Twilight 6:56 AM CDT 7:55 PM CDT
Nautical Twilight 6:28 AM CDT 8:24 PM CDT
Astronomical Twilight 6:00 AM CDT 8:52 PM CDT
Moon 6:31 AM CDT (3/21) 6:58 PM CDT (3/21)
Length of Visible Light 12h 59m
Length of Day
12h 10m
Waning Crescent, 1% of the Moon is Illuminated
Mar 21
Waning Crescent
Mar 22
New
Mar 30
First Quarter
Apr 6
Full
Apr 13
Last Quarter

Hourly Weather History & Observations

Time (CDT) Temp. Dew Point Humidity Pressure Visibility Wind Dir Wind Speed Gust Speed Precip Events Conditions
12:01 AM 55.4 °F 53.6 °F 94% 29.84 in 3.0 mi East 5.8 mph - N/A   Scattered Clouds
12:07 AM 57.2 °F 53.6 °F 88% 29.84 in 2.5 mi ENE 5.8 mph - N/A   Mostly Cloudy
12:15 AM 57.2 °F 55.4 °F 94% 29.83 in 1.0 mi ENE 4.6 mph - N/A   Mostly Cloudy
12:28 AM 57.2 °F 55.4 °F 94% 29.80 in 3.0 mi NNE 4.6 mph - N/A   Overcast
12:53 AM 57.2 °F 55.4 °F 94% 29.81 in 7.0 mi East 4.6 mph - N/A   Overcast
1:53 AM 57.9 °F 55.0 °F 90% 29.80 in 10.0 mi NE 3.5 mph - N/A   Overcast
2:12 AM 57.2 °F 55.4 °F 94% 29.83 in 10.0 mi WNW 3.5 mph - N/A   Overcast
2:53 AM 57.9 °F 55.0 °F 90% 29.84 in 9.0 mi Calm Calm - N/A   Overcast
3:23 AM 57.2 °F 55.4 °F 94% 29.83 in 7.0 mi WNW 4.6 mph - N/A   Overcast
3:53 AM 57.9 °F 55.0 °F 90% 29.82 in 7.0 mi NW 3.5 mph - N/A   Overcast
4:53 AM 57.9 °F 55.0 °F 90% 29.86 in 10.0 mi West 8.1 mph - N/A   Overcast
5:51 AM 57.2 °F 55.4 °F 94% 29.87 in 10.0 mi WNW 8.1 mph 18.4 mph 0.00 in   Overcast
5:53 AM 57.9 °F 54.0 °F 87% 29.87 in 10.0 mi West 8.1 mph 16.1 mph 0.00 in   Overcast
6:03 AM 57.2 °F 51.8 °F 82% 29.89 in 10.0 mi West 15.0 mph 24.2 mph N/A   Overcast
6:12 AM 55.4 °F 46.4 °F 72% 29.87 in 10.0 mi WNW 18.4 mph 32.2 mph 0.00 in Rain Light Rain
6:53 AM 53.1 °F 46.9 °F 80% 29.91 in 9.0 mi West 8.1 mph - 0.01 in Rain Light Rain
7:53 AM 53.1 °F 46.9 °F 80% 29.88 in 10.0 mi Calm Calm - 0.01 in   Overcast
8:53 AM 52.0 °F 48.0 °F 86% 29.86 in 10.0 mi East 4.6 mph - 0.00 in   Overcast
9:53 AM 53.1 °F 48.9 °F 86% 29.87 in 10.0 mi SSE 3.5 mph - N/A   Overcast
10:53 AM 55.0 °F 50.0 °F 83% 29.89 in 10.0 mi Calm Calm - N/A   Mostly Cloudy
11:53 AM 59.0 °F 51.1 °F 75% 29.89 in 10.0 mi Variable 5.8 mph - N/A   Clear
12:53 PM 62.1 °F 48.0 °F 60% 29.88 in 10.0 mi South 8.1 mph - N/A   Clear
1:53 PM 66.0 °F 44.1 °F 45% 29.85 in 10.0 mi SW 12.7 mph 20.7 mph N/A   Clear
2:53 PM 66.9 °F 36.0 °F 32% 29.82 in 10.0 mi SW 11.5 mph - N/A   Clear
3:53 PM 69.1 °F 42.1 °F 38% 29.81 in 10.0 mi South 8.1 mph 18.4 mph N/A   Clear
4:53 PM 69.1 °F 43.0 °F 39% 29.82 in 10.0 mi SSW 11.5 mph 19.6 mph N/A   Clear
5:53 PM 69.1 °F 42.1 °F 38% 29.83 in 10.0 mi SW 6.9 mph - N/A   Mostly Cloudy
6:53 PM 68.0 °F 43.0 °F 40% 29.86 in 10.0 mi SSE 5.8 mph - N/A   Mostly Cloudy
7:53 PM 64.9 °F 45.0 °F 48% 29.88 in 10.0 mi SSE 3.5 mph - N/A   Overcast
8:53 PM 62.1 °F 48.9 °F 62% 29.92 in 10.0 mi SSE 9.2 mph - N/A   Mostly Cloudy
9:53 PM 62.1 °F 48.0 °F 60% 29.94 in 10.0 mi South 6.9 mph - N/A   Overcast
10:53 PM 59.0 °F 45.0 °F 60% 29.94 in 10.0 mi SSE 6.9 mph - N/A   Clear
11:53 PM 57.9 °F 44.1 °F 60% 29.94 in 10.0 mi SSE 6.9 mph - N/A   Clear